This is the latest recevied weather packets stored in our database for station/object EB2EMZ-3. If no packets are shown the sender has not sent any weather packets the latest 10 day(s).
| Time | Temp. | Humidity | Pressure | Rain* | Wind** | Luminosity | Snow |
|---|---|---|---|---|---|---|---|
| 1777700089 | 15.56° C | 93% | 1021.6 hPa | 2.54 mm | - | - | - |
| 1777699789 | 15.56° C | 93% | 1021.6 hPa | 2.54 mm | - | - | - |
| 1777699489 | 15.56° C | 93% | 1021.5 hPa | 3.05 mm | - | - | - |
| 1777699189 | 15.56° C | 93% | 1021.5 hPa | 4.57 mm | - | - | - |
| 1777698889 | 15° C | 93% | 1021.5 hPa | 4.57 mm | - | - | - |
| 1777698589 | 15° C | 92% | 1021.4 hPa | 3.05 mm | - | - | - |
| 1777698289 | 15° C | 92% | 1021.4 hPa | 3.05 mm | - | - | - |
| 1777697989 | 15° C | 92% | 1021.5 hPa | 4.06 mm | - | - | - |
| 1777697689 | 15° C | 92% | 1021.5 hPa | 5.08 mm | - | - | - |
| 1777697389 | 15.56° C | 92% | 1021.4 hPa | 5.08 mm | - | - | - |
| 1777697089 | 15° C | 92% | 1021.3 hPa | 4.57 mm | - | - | - |
| 1777696789 | 15° C | 92% | 1021.3 hPa | 4.57 mm | - | - | - |
| 1777696489 | 15.56° C | 92% | 1021.2 hPa | 4.57 mm | - | - | - |
| 1777696189 | 15.56° C | 92% | 1021.2 hPa | 4.06 mm | - | - | - |
| 1777695889 | 15.56° C | 92% | 1021.1 hPa | 4.57 mm | - | - | - |
| 1777695589 | 15.56° C | 92% | 1021.2 hPa | 3.05 mm | - | - | - |
| 1777695289 | 15.56° C | 92% | 1021.3 hPa | 3.05 mm | - | - | - |
| 1777694989 | 16.11° C | 92% | 1021.2 hPa | 3.05 mm | - | - | - |
| 1777694689 | 16.11° C | 92% | 1021.3 hPa | 3.05 mm | - | - | - |
| 1777694389 | 16.11° C | 92% | 1021.2 hPa | 2.03 mm | - | - | - |
| 1777694089 | 16.11° C | 92% | 1021.4 hPa | 1.52 mm | - | - | - |
| 1777693789 | 16.67° C | 91% | 1021.3 hPa | 1.52 mm | - | - | - |
| 1777693490 | 16.67° C | 91% | 1021.3 hPa | 1.52 mm | - | - | - |
| 1777693189 | 16.67° C | 91% | 1021.3 hPa | 1.52 mm | - | - | - |
| 1777692889 | 16.67° C | 91% | 1021.1 hPa | 1.52 mm | - | - | - |
* Rain latest hour (hover to see other rain measurements)
** Current wind speed in m/s (hover to see current wind gust speed)